User: anonymous   Login
Location: Unspecified
(0.0000°N, 0.0000°E)
Time: 05:43:35
(UTC+00:00)
Language:

DOVE 4 - Orbit

View from above orbital plane
View from above orbital plane
View from above satellite
View from above satellite

Ground track
Ground track

The orbit data is extracted from the following two-line orbital elements,

1 39430U 13066Q   19083.84132368  .00000139  00000-0  33934-4 0  9990
2 39430  97.7360  46.1019 0151525 164.4043 196.1909 14.59209789284086
Epoch (UTC): 24 March 2019 20:11:30
Eccentricity: 0.0151525
inclination: 97.7360°
perigee height: 588 km
apogee height: 803 km
right ascension of ascending node: 46.1019°
argument of perigee: 164.4043°
revolutions per day: 14.59209789
mean anomaly at epoch: 196.1909°
orbit number at epoch: 28408

The dashed part of the orbit path shows where the satellite is in the earth's shadow,  

DLR